EW4921 Weather Reports


Display with metric or nautical units.
time (UTC)temp
F
wind
direction
speed
MPH
gust
MPH
rain 1hr
in
rain 24hr
in
rain mn
in
humidity
%
barometer
mb
20260831042033 69 46 0.0 1.0 0.00 0.00 0.00 72 1012.8
20260831041534 69 46 0.0 2.0 0.00 0.00 0.00 71 1012.8
20260831041026 69 324 1.0 2.0 0.00 0.00 0.00 71 1012.8
20260831040546 69 1 0.0 1.0 0.00 0.00 0.00 71 1012.8
20260831040019 70 1 0.0 1.0 0.00 0.00 0.00 71 1012.7
20260831035518 70 46 0.0 1.0 0.00 0.00 0.00 70 1012.7
20260831035029 70 1 0.0 1.0 0.00 0.00 0.00 70 1012.6
20260831034531 70 46 0.0 1.0 0.00 0.00 0.00 70 1012.6
20260831034024 71 1 0.0 1.0 0.00 0.00 0.00 69 1012.5
20260831033514 71 1 0.0 1.0 0.00 0.00 0.00 69 1012.4
20260831033026 71 46 0.0 1.0 0.00 0.00 0.00 68 1012.2
20260831032518 71 28 0.0 1.0 0.00 0.00 0.00 68 1012.2
20260831032031 72 314 0.0 2.0 0.00 0.00 0.00 68 1012.1
20260831031533 72 314 1.0 2.0 0.00 0.00 0.00 67 1012.0
20260831031020 72 46 0.0 3.0 0.00 0.00 0.00 67 1012.0
20260831030546 72 331 1.0 3.0 0.00 0.00 0.00 66 1011.9
20260831030031 72 279 2.0 3.0 0.00 0.00 0.00 66 1012.0
20260831025556 73 283 1.0 2.0 0.00 0.00 0.00 65 1011.9
20260831025026 73 1 1.0 2.0 0.00 0.00 0.00 64 1011.9
20260831024525 73 314 0.0 2.0 0.00 0.00 0.00 63 1011.9
20260831024034 74 269 0.0 2.0 0.00 0.00 0.00 63 1012.0
20260831023535 74 269 0.0 2.0 0.00 0.00 0.00 63 1011.8
20260831023027 74 46 1.0 2.0 0.00 0.00 0.00 63 1011.8
20260831022531 75 178 0.0 2.0 0.00 0.00 0.00 63 1011.9
20260831022042 75 72 0.0 2.0 0.00 0.00 0.00 63 1011.9
20260831021514 75 340 1.0 3.0 0.00 0.00 0.00 62 1011.9
20260831021047 75 46 0.0 3.0 0.00 0.00 0.00 62 1011.9
20260831020550 76 240 1.0 3.0 0.00 0.00 0.00 61 1011.9
20260831020042 76 210 1.0 3.0 0.00 0.00 0.00 61 1011.9
20260831015519 76 89 1.0 3.0 0.00 0.00 0.00 61 1011.9
20260831015031 76 135 1.0 3.0 0.00 0.00 0.00 61 1011.9
20260831014533 77 269 1.0 3.0 0.00 0.00 0.00 62 1012.0
20260831014025 77 314 1.0 3.0 0.00 0.00 0.00 61 1011.9
20260831013526 77 295 1.0 3.0 0.00 0.00 0.00 60 1011.9
20260831013017 78 314 1.0 5.0 0.00 0.00 0.00 60 1012.0
20260831012533 78 327 1.0 5.0 0.00 0.00 0.00 60 1011.9
20260831012024 79 117 2.0 10.0 0.00 0.00 0.00 59 1011.9
20260831011538 79 336 2.0 10.0 0.00 0.00 0.00 59 1011.8
20260831011026 80 264 2.0 5.0 0.00 0.00 0.00 59 1011.8
20260831010547 80 269 2.0 5.0 0.00 0.00 0.00 58 1011.8
20260831010019 80 135 1.0 3.0 0.00 0.00 0.00 59 1011.8
20260831005518 81 46 1.0 5.0 0.00 0.00 0.00 59 1011.8
20260831005033 81 197 1.0 6.0 0.00 0.00 0.00 58 1011.7
20260831004536 81 89 1.0 8.0 0.00 0.00 0.00 58 1011.6
20260831004028 82 269 3.0 8.0 0.00 0.00 0.00 58 1011.7
20260830160559 75 124 1.0 4.0 0.00 0.00 0.00 69 1013.5
20260830160025 74 1 1.0 5.0 0.00 0.00 0.00 72 1013.4
20260830155518 74 63 1.0 5.0 0.00 0.00 0.00 73 1013.4
20260830155046 73 35 1.0 3.0 0.00 0.00 0.00 73 1013.5
20260830154543 73 1 1.0 3.0 0.00 0.00 0.00 75 1013.5
20260830154020 72 46 2.0 3.0 0.00 0.00 0.00 75 1013.5
20260830153522 71 171 2.0 4.0 0.00 0.00 0.00 77 1013.5
20260830153012 70 186 1.0 3.0 0.00 0.00 0.00 79 1013.6
20260830152529 70 89 1.0 3.0 0.00 0.00 0.00 79 1013.6
20260830152018 68 49 2.0 5.0 0.00 0.00 0.00 82 1013.5
20260830151518 67 158 2.0 4.0 0.00 0.00 0.00 87 1013.4
20260830151015 67 178 0.0 2.0 0.00 0.00 0.00 89 1013.5
20260830150558 66 117 1.0 4.0 0.00 0.00 0.00 90 1013.5
20260830150023 66 108 1.0 5.0 0.00 0.00 0.00 90 1013.6
20260830145524 65 269 1.0 2.0 0.00 0.00 0.00 90 1013.5
20260830145049 65 28 0.0 2.0 0.00 0.00 0.00 90 1013.5
20260830144529 65 89 0.0 2.0 0.00 0.00 0.00 90 1013.4
20260830144022 64 20 0.0 2.0 0.00 0.00 0.00 89 1013.5
20260830143536 64 1 0.0 3.0 0.00 0.00 0.00 89 1013.5
20260830143027 64 308 1.0 3.0 0.00 0.00 0.00 89 1013.5
20260830142516 64 89 1.0 2.0 0.00 0.00 0.00 88 1013.5
20260830142047 64 1 0.0 1.0 0.00 0.00 0.00 89 1013.5
20260830141537 64 269 0.0 1.0 0.00 0.00 0.00 88 1013.4
20260830141029 63 178 0.0 1.0 0.00 0.00 0.00 88 1013.4
20260830140547 63 178 0.0 1.0 0.00 0.00 0.00 88 1013.4
20260830140020 63 340 0.0 1.0 0.00 0.00 0.00 88 1013.2
20260830135522 63 331 0.0 1.0 0.00 0.00 0.00 88 1013.2
20260830135012 63 28 0.0 1.0 0.00 0.00 0.00 88 1013.0
20260830134534 63 269 0.0 1.0 0.00 0.00 0.00 87 1013.0
20260830134023 63 314 0.0 1.0 0.00 0.00 0.00 87 1013.0
20260830133541 63 314 0.0 1.0 0.00 0.00 0.00 87 1012.8
20260830133033 63 1 0.0 2.0 0.00 0.00 0.00 87 1012.7
20260830132532 63 178 0.0 2.0 0.00 0.00 0.00 87 1012.7
20260830132025 63 46 0.0 2.0 0.00 0.00 0.00 87 1012.6
20260830131546 63 46 1.0 2.0 0.00 0.00 0.00 87 1012.5
20260830131032 63 46 0.0 2.0 0.00 0.00 0.00 87 1012.5
20260830130538 63 1 0.0 2.0 0.00 0.00 0.00 87 1012.5
20260830130025 63 46 1.0 2.0 0.00 0.00 0.00 87 1012.6
20260830125520 63 269 1.0 1.0 0.00 0.00 0.00 86 1012.5
20260830125039 63 89 0.0 1.0 0.00 0.00 0.00 86 1012.4
20260830124518 63 178 0.0 1.0 0.00 0.00 0.00 86 1012.4
20260830124026 63 178 0.0 1.0 0.00 0.00 0.00 86 1012.4
20260830123528 63 1 0.0 1.0 0.00 0.00 0.00 86 1012.4
20260830123021 63 117 0.0 2.0 0.00 0.00 0.00 86 1012.3
20260830122537 63 152 0.0 2.0 0.00 0.00 0.00 86 1012.2
20260830122024 63 1 1.0 2.0 0.00 0.00 0.00 85 1012.3
20260830121521 63 117 0.0 2.0 0.00 0.00 0.00 85 1012.3
20260830121033 63 1 0.0 3.0 0.00 0.00 0.00 85 1012.4
20260830120600 63 135 1.0 3.0 0.00 0.00 0.00 85 1012.4
20260830120043 63 63 0.0 1.0 0.00 0.00 0.00 85 1012.4
20260830115521 63 89 0.0 1.0 0.00 0.00 0.00 85 1012.4
20260830115037 63 1 0.0 1.0 0.00 0.00 0.00 84 1012.4
20260830114517 63 46 0.0 1.0 0.00 0.00 0.00 84 1012.3
20260830114028 63 1 0.0 1.0 0.00 0.00 0.00 84 1012.3
20260830113551 64 135 0.0 1.0 0.00 0.00 0.00 83 1012.3
20260830113043 64 1 0.0 2.0 0.00 0.00 0.00 84 1012.3
20260830112519 64 269 1.0 2.0 0.00 0.00 0.00 83 1012.1
20260830112017 64 1 0.0 2.0 0.00 0.00 0.00 83 1012.0
20260830111519 64 46 1.0 2.0 0.00 0.00 0.00 83 1012.1
20260830111019 64 1 0.0 1.0 0.00 0.00 0.00 83 1012.1
20260830110543 64 63 0.0 2.0 0.00 0.00 0.00 83 1012.0
20260830110017 64 63 1.0 2.0 0.00 0.00 0.00 82 1012.1
20260830105534 64 89 0.0 1.0 0.00 0.00 0.00 83 1012.1
20260830105024 64 1 0.0 1.0 0.00 0.00 0.00 82 1012.1
20260830104525 64 89 0.0 1.0 0.00 0.00 0.00 82 1012.1
20260830104036 64 46 0.0 1.0 0.00 0.00 0.00 82 1012.2
20260830103534 65 72 1.0 1.0 0.00 0.00 0.00 82 1012.2
20260830103022 65 46 0.0 2.0 0.00 0.00 0.00 82 1012.3
20260830102522 65 1 0.0 2.0 0.00 0.00 0.00 82 1012.4
20260830102020 65 46 1.0 2.0 0.00 0.00 0.00 81 1012.4
20260830101521 65 1 1.0 2.0 0.00 0.00 0.00 81 1012.3
20260830101020 65 46 0.0 2.0 0.00 0.00 0.00 81 1012.2
20260830100545 65 46 1.0 2.0 0.00 0.00 0.00 81 1012.2
20260830100018 65 135 1.0 2.0 0.00 0.00 0.00 80 1012.2
20260830095556 65 89 0.0 2.0 0.00 0.00 0.00 80 1012.3
20260830095022 65 89 0.0 2.0 0.00 0.00 0.00 80 1012.2
20260830094522 65 46 0.0 2.0 0.00 0.00 0.00 80 1012.2
20260830094031 66 1 0.0 1.0 0.00 0.00 0.00 80 1012.2
20260830093532 66 46 0.0 1.0 0.00 0.00 0.00 79 1012.2
20260830093020 66 89 0.0 2.0 0.00 0.00 0.00 79 1012.2
20260830092520 66 28 0.0 2.0 0.00 0.00 0.00 79 1012.1
20260830092051 66 178 0.0 1.0 0.00 0.00 0.00 79 1012.2
20260830091532 66 1 0.0 1.0 0.00 0.00 0.00 79 1012.1
20260830091023 66 1 0.0 1.0 0.00 0.00 0.00 78 1011.9
20260830090544 67 46 0.0 1.0 0.00 0.00 0.00 78 1012.0
20260830090017 67 1 0.0 2.0 0.00 0.00 0.00 78 1012.0
20260830085559 67 28 1.0 2.0 0.00 0.00 0.00 78 1011.9
20260830085026 67 63 1.0 1.0 0.00 0.00 0.00 77 1011.9
20260830084524 67 89 0.0 1.0 0.00 0.00 0.00 77 1012.0
20260830084015 68 1 0.0 1.0 0.00 0.00 0.00 77 1012.0
20260830083532 68 1 0.0 1.0 0.00 0.00 0.00 76 1011.9
20260830083020 68 63 0.0 1.0 0.00 0.00 0.00 76 1012.0
20260830082521 68 178 0.0 1.0 0.00 0.00 0.00 76 1012.0
20260830082033 68 89 0.0 1.0 0.00 0.00 0.00 76 1012.0
20260830081529 69 46 0.0 1.0 0.00 0.00 0.00 75 1012.0
20260830081019 69 46 0.0 1.0 0.00 0.00 0.00 75 1012.1
20260830080542 69 89 0.0 1.0 0.00 0.00 0.00 75 1012.1
20260830080026 69 1 1.0 1.0 0.00 0.00 0.00 75 1012.0
20260830075521 69 314 0.0 1.0 0.00 0.00 0.00 75 1012.0
20260830075033 69 152 0.0 1.0 0.00 0.00 0.00 75 1012.0
20260830074537 69 46 0.0 2.0 0.00 0.00 0.00 75 1012.0
20260830074024 69 63 1.0 2.0 0.00 0.00 0.00 74 1011.9
20260830073546 69 89 0.0 2.0 0.00 0.00 0.00 74 1012.0
20260830073017 70 46 0.0 1.0 0.00 0.00 0.00 74 1012.0
20260830072538 70 46 0.0 1.0 0.00 0.00 0.00 74 1012.0
20260830072028 70 46 0.0 1.0 0.00 0.00 0.00 74 1011.8
20260830071526 70 46 0.0 1.0 0.00 0.00 0.00 74 1011.9
20260830071035 70 1 0.0 1.0 0.00 0.00 0.00 74 1012.0
20260830070601 70 1 0.0 1.0 0.00 0.00 0.00 74 1012.0
20260830070026 70 1 0.0 2.0 0.00 0.00 0.00 73 1011.9
20260830065523 70 1 0.0 2.0 0.00 0.00 0.00 73 1012.0
20260830065022 70 1 0.0 2.0 0.00 0.00 0.00 73 1011.9
20260830064519 70 340 1.0 2.0 0.00 0.00 0.00 73 1011.8
20260830064032 70 28 0.0 2.0 0.00 0.00 0.00 73 1011.7
20260830063534 70 89 0.0 2.0 0.00 0.00 0.00 73 1011.7
20260830063026 70 344 0.0 1.0 0.00 0.00 0.00 73 1011.7
20260830062527 70 46 0.0 2.0 0.00 0.00 0.00 73 1011.7
20260830062016 70 63 0.0 2.0 0.00 0.00 0.00 73 1011.7
20260830061533 70 1 0.0 1.0 0.00 0.00 0.00 72 1011.8
20260830061018 70 331 0.0 1.0 0.00 0.00 0.00 72 1011.6
20260830060544 70 1 0.0 1.0 0.00 0.00 0.00 72 1011.7
20260830060036 70 28 0.0 1.0 0.00 0.00 0.00 71 1011.7
20260830055536 70 46 0.0 2.0 0.00 0.00 0.00 71 1011.7
20260830055042 70 1 1.0 2.0 0.00 0.00 0.00 71 1011.8
20260830054524 70 28 1.0 3.0 0.00 0.00 0.00 71 1011.7
20260830054035 71 46 0.0 3.0 0.00 0.00 0.00 71 1011.7
20260830053532 71 350 2.0 3.0 0.00 0.00 0.00 70 1011.6
20260830053024 71 28 0.0 2.0 0.00 0.00 0.00 70 1011.8
20260830052524 71 46 0.0 2.0 0.00 0.00 0.00 70 1011.8
20260830052019 71 46 0.0 2.0 0.00 0.00 0.00 70 1011.9
20260830051523 71 46 0.0 2.0 0.00 0.00 0.00 69 1011.9
20260830051020 71 340 1.0 2.0 0.00 0.00 0.00 69 1011.9
20260830050543 72 63 0.0 1.0 0.00 0.00 0.00 69 1011.9
20260830050057 72 89 0.0 1.0 0.00 0.00 0.00 69 1011.9
20260830045537 72 46 0.0 1.0 0.00 0.00 0.00 69 1011.9
20260830045025 72 46 0.0 1.0 0.00 0.00 0.00 68 1011.9
20260830044525 72 46 0.0 1.0 0.00 0.00 0.00 68 1012.0
20260830044022 72 89 0.0 1.0 0.00 0.00 0.00 68 1012.0
20260830043524 73 46 0.0 1.0 0.00 0.00 0.00 68 1012.0
20260830043023 73 46 0.0 1.0 0.00 0.00 0.00 68 1012.1
20260830042545 73 89 0.0 1.0 0.00 0.00 0.00 68 1012.0